Weather in Los Anzheles

United States     34°05′32″N   117°57′14″W
temp.,
°C
wind,
m/s
gust,
m/s
humid.,
%
clouds,
%
prec.,
mm/h
press.,
hPa
HPBL,
m
7 may, fri
fri723:00+16s22701 0.0 1017411
02:00+15ssw22758 0.0 1016374
05:00+15ssw21777 0.0 1016368
08:00+16sw21715 0.0 1016491
11:00+20ssw32490 0.0 1015824
14:00+24ssw54380 0.0 10141052
17:00+22ssw54420 0.0 1012915
20:00+19ssw43580 0.0 1013605
8 may, sat
sat823:00+16s33702 0.0 1013458
02:00+16s32721 0.0 1013448
05:00+15s22750 0.0 1012337
08:00+16ssw32670 0.0 1013536
11:00+21sw43470 0.0 1013845
14:00+24sw54390 0.0 1012930
17:00+23sw54410 0.0 1011905
20:00+19ssw43540 0.0 1012502
9 may, sun
sun923:00+17ssw32630 0.0 1012382
02:00+16ssw32680 0.0 1012364
05:00+16ssw22761 0.0 1012369
08:00+17s22702 0.0 1012538
11:00+21sw32480 0.0 1012983
14:00+23ssw54430 0.0 10101123
17:00+22ssw53450 0.0 1009993
20:00+18ssw44622 0.0 1010651
10 may, mon
mon1023:00+16s336833 0.0 1011689
02:00+16s336941 0.0 1010740
05:00+16s226847 0.0 1010685
08:00+17s226435 0.0 1011784
11:00+21ssw32471 0.0 10111127
14:00+23sw54420 0.0 10101185
17:00+22ssw54460 0.0 10101037
20:00+19ssw43550 0.0 1011650
11 may, tue
tue1123:00+17ssw33640 0.0 1012506
02:00+16ssw22690 0.0 1012458
05:00+15ssw22730 0.0 1012390
08:00+16ssw22680 0.0 1014481
11:00+22sw32440 0.0 1013746
14:00+26sw54330 0.0 1012872
17:00+24sw54370 0.0 1012781
20:00+21ssw43540 0.0 1014549